[[{"header":{"parameterUnit":"m.s-1","parameterCategory":1,"la1":30.2991,"la2":30.254,"lo1":-89.0895,"lo2":-89.0444,"dy":0.0017,"dx":0.0017,"nx":28,"ny":28,"refTime":"2023-08-22T21:00:00:Z","depth":0,"parameterNumber":2,"parameterNumberName":"U-component_of_WINDS"},"data":[0,0,0,0,0,0,0,0,0,0,0,0,0,0,0,0,0,0,0,0,0,0,0,0,0,0,0,0,0,0,0,0,0,0,0,0,0,0,0,0,0,0,0,0,0,0,0,0,0,0,0,0,0,0,0,0,0,0,1.0635,1.0637,0,1.0794,1.0795,1.0797,1.0845,1.0844,1.0844,1.0843,1.1009,1.1014,1.1019,0,0,0,0,0,0,0,0,0,0,0,0,0,1.0375,1.038,1.0635,1.0637,1.0639,1.0793,1.0795,1.0798,1.0845,1.0844,1.0843,1.0842,1.1007,1.1013,1.1019,0,0,0,0,0,0,0,0,0,0,0,0,0,1.0506,1.0381,1.0634,1.0681,1.0687,1.0793,1.0796,1.0798,1.0846,1.0844,1.0843,1.0842,1.1005,1.1012,1.102,1.1092,0,0,1.1044,1.1047,0,0,0,0,0,0,0,0,1.0499,1.0516,1.0672,1.0678,1.0685,1.0798,1.0765,1.0897,1.0846,1.0785,1.0843,1.0841,1.094,1.0953,1.0985,1.11,1.1107,1.1044,1.1049,1.1053,1.1055,0,0,0,0,0,0,0,1.049,1.0509,1.0698,1.0675,1.0682,1.0695,1.0712,1.079,1.0868,1.0791,1.0794,1.0812,1.0943,1.0978,1.099,1.1109,1.1044,1.1051,1.1056,1.1059,1.129,1.1291,0,0,0,0,0,0,1.0472,1.0501,1.0693,1.0702,1.0587,1.07,1.072,1.0763,1.0867,1.0881,1.0813,1.0814,1.0965,1.0981,1.0996,1.1086,1.1052,1.106,1.1064,1.1288,1.129,1.1292,0,0,0,0,0,0,1.0467,1.0489,1.0686,1.0603,1.0629,1.0706,1.0754,1.0767,1.0802,1.0884,1.0898,1.0834,1.0965,1.0985,1.1067,1.1092,1.1063,1.107,1.1286,1.1289,1.1291,1.1267,0,0,0,0,0,0,1.0459,1.0487,1.0514,1.0603,1.0633,1.0755,1.0756,1.0771,1.0814,1.0817,1.0908,1.0921,1.0965,1.1055,1.1075,1.1103,1.1076,1.1285,1.1287,1.129,1.1266,1.1269,1.127,0,0,0,0,0,1.0449,1.0502,1.0515,1.0538,1.067,1.0756,1.0773,1.0822,1.0816,1.0845,1.0898,1.0919,1.1086,1.1063,1.1086,1.1116,1.1283,1.1287,1.129,1.1265,1.1268,1.127,0,0,0,0,0,0,1.0416,1.0515,1.0531,1.0614,1.0676,1.0764,1.0802,1.0823,1.0889,1.0889,1.0947,1.0967,1.1045,1.1089,1.1062,1.1191,1.1186,1.1193,1.1159,1.1163,1.1165,1.1153,1.1083,0,0,0,0,0,1.0418,1.0479,1.0563,1.0628,1.0658,1.0724,1.0764,1.0796,1.0863,1.089,1.0948,1.1013,1.1081,1.1124,1.1191,1.1273,1.1293,1.1304,1.1306,1.1308,1.1314,1.136,1.1365,1.1302,1.1302,1.1302,0,0,1.0424,1.0485,1.052,1.0623,1.0675,1.0737,1.0746,1.0812,1.0859,1.09,1.0981,1.1026,1.1103,1.1185,1.1224,1.1224,1.1336,1.1312,1.1312,1.1318,1.1364,1.1369,1.1375,1.1305,1.1304,1.1304,0,0,1.0465,1.0518,1.0578,1.0629,1.0706,1.075,1.0764,1.0849,1.088,1.0961,1.0993,1.105,1.1165,1.1218,1.126,1.1319,1.134,1.1339,1.135,1.1394,1.1399,1.1403,1.1424,1.1431,1.1345,1.1345,1.1345,0,1.0462,1.0557,1.0606,1.067,1.0714,1.0752,1.0813,1.086,1.0956,1.0986,1.0984,1.1128,1.1182,1.1276,1.129,1.1323,1.1341,1.1329,1.1394,1.1399,1.1404,1.1425,1.1432,1.1344,1.1344,1.1344,1.1344,0,1.0549,1.0614,1.0653,1.0743,1.0791,1.0853,1.0912,1.0955,1.0982,1.1026,1.1108,1.1174,1.1254,1.1279,1.1307,1.1377,1.1374,1.1382,1.1378,1.1409,1.1429,1.1437,1.1343,1.1343,1.1344,1.1344,0,0,1.0575,1.069,1.0704,1.0744,1.0832,1.0884,1.0947,1.1024,1.1059,1.1124,1.1179,1.1274,1.1281,1.1329,1.1363,1.1401,1.1443,1.1404,1.1407,1.1409,1.1523,1.1516,1.1524,1.1457,1.1459,1.146,1.1516,0,1.0628,1.0742,1.0787,1.088,1.094,1.0977,1.1032,1.1092,1.1134,1.1191,1.1238,1.1304,1.131,1.1338,1.1378,1.1429,1.1466,1.1426,1.1509,1.1511,1.1488,1.1535,1.1529,1.1579,1.1525,1.1526,1.1527,0,1.0705,1.0768,1.0866,1.0945,1.0972,1.1021,1.1094,1.1149,1.1217,1.1245,1.1297,1.1328,1.1396,1.1387,1.1481,1.1453,1.1489,1.1519,1.1522,1.1532,1.1521,1.1546,1.1596,1.1603,1.154,1.1539,1.1538,0,1.0713,1.0823,1.0896,1.093,1.1024,1.1057,1.1098,1.1165,1.1208,1.1272,1.1301,1.1372,1.1412,1.1466,1.1516,1.1505,1.1605,1.1601,1.1631,1.1629,1.1651,1.1649,1.1707,1.1674,1.1674,1.1674,1.1673,0,1.0767,1.0825,1.0901,1.0945,1.1012,1.1063,1.1128,1.1172,1.1231,1.1285,1.1321,1.1371,1.1433,1.1491,1.1531,1.1602,1.162,1.1645,1.1654,1.1641,1.1638,1.1666,1.1664,1.1676,1.1675,1.1675,1.1675,0,1.0788,1.0841,1.0922,1.1004,1.1026,1.1071,1.1141,1.1186,1.1229,1.1297,1.1316,1.1383,1.1453,1.1508,1.16,1.1626,1.1701,1.1712,1.1678,1.1683,1.1709,1.1706,1.1788,1.1801,1.1759,1.1759,1.176,0,1.0819,1.0864,1.095,1.0989,1.1029,1.109,1.1133,1.1185,1.1229,1.1309,1.1344,1.1417,1.1477,1.1587,1.1645,1.1715,1.1727,1.1751,1.1738,1.1723,1.1727,1.1724,1.1728,1.1753,1.1753,1.1753,1.1753,0,1.0868,1.0891,1.0952,1.1021,1.1071,1.1129,1.1187,1.1216,1.1279,1.1326,1.1397,1.1444,1.1536,1.1607,1.1683,1.1726,1.175,1.1757,1.1767,1.1754,1.1732,1.1744,1.1682,1.1755,1.1755,1.1754,1.1754,1.1754,1.0895,1.0936,1.1003,1.1069,1.1118,1.1171,1.1217,1.1264,1.1324,1.1403,1.143,1.1503,1.1569,1.1673,1.1716,1.1774,1.1775,1.1791,1.1795,1.1798,1.1796,1.1722,1.1788,1.1788,1.1788,1.1788,1.1788,0,1.0945,1.0989,1.1049,1.1129,1.118,1.1197,1.1262,1.1305,1.1368,1.1427,1.1485,1.1567,1.1635,1.1697,1.1769,1.1803,1.1816,1.182,1.1818,1.1827,1.1791,1.1774,1.1808,1.1808,1.1808,1.1808,1.1808,1.1808,1.0977,1.1049,1.108,1.1175,1.1219,1.129,1.1326,1.1375,1.1422,1.1511,1.1567,1.1607,1.1667,1.1743,1.1807,1.1823,1.1848,1.1849,1.1868,1.1833,1.183,1.1828,1.1812,1.1854,1.1854,1.19,1.19,1.1901]},{"header":{"parameterUnit":"m.s-1","parameterCategory":1,"la1":30.2991,"la2":30.254,"lo1":-89.0895,"lo2":-89.0444,"dy":0.0017,"dx":0.0017,"nx":28,"ny":28,"refTime":"2023-08-22T21:00:00:Z","depth":0,"parameterNumber":3,"parameterNumberName":"V-component_of_WINDS"},"data":[0,0,0,0,0,0,0,0,0,0,0,0,0,0,0,0,0,0,0,0,0,0,0,0,0,0,0,0,0,0,0,0,0,0,0,0,0,0,0,0,0,0,0,0,0,0,0,0,0,0,0,0,0,0,0,0,0,0,2.5371,2.5371,0,2.5337,2.5337,2.5336,2.5358,2.5359,2.536,2.5361,2.5322,2.532,2.5318,0,0,0,0,0,0,0,0,0,0,0,0,0,2.5449,2.5447,2.5371,2.5371,2.537,2.5337,2.5337,2.5336,2.5358,2.5359,2.536,2.5361,2.5323,2.532,2.5318,0,0,0,0,0,0,0,0,0,0,0,0,0,2.5415,2.5447,2.5371,2.5377,2.5377,2.5337,2.5337,2.5336,2.5358,2.5359,2.5361,2.5362,2.5323,2.5321,2.5318,2.5269,0,0,2.5309,2.5307,0,0,0,0,0,0,0,0,2.5417,2.5412,2.5377,2.5377,2.5377,2.5354,2.535,2.5313,2.5357,2.5365,2.5361,2.5363,2.5331,2.5327,2.5318,2.5267,2.5265,2.5308,2.5306,2.5305,2.5304,0,0,0,0,0,0,0,2.5419,2.5414,2.5358,2.5376,2.5376,2.538,2.5377,2.5343,2.534,2.5364,2.5366,2.5362,2.5331,2.532,2.5317,2.5265,2.5308,2.5306,2.5304,2.5303,2.5168,2.5166,0,0,0,0,0,0,2.5422,2.5416,2.5359,2.5357,2.5401,2.5377,2.5374,2.5359,2.534,2.5339,2.536,2.5363,2.5325,2.532,2.5316,2.5254,2.5305,2.5302,2.5301,2.517,2.5167,2.5165,0,0,0,0,0,0,2.5423,2.5417,2.536,2.5386,2.538,2.5374,2.5358,2.5358,2.5347,2.5337,2.5336,2.535,2.5326,2.532,2.528,2.5253,2.5301,2.5298,2.5172,2.5169,2.5166,2.5132,0,0,0,0,0,0,2.5426,2.5417,2.54,2.5386,2.5378,2.5326,2.5356,2.5356,2.5342,2.5345,2.5327,2.5326,2.5327,2.5284,2.5277,2.525,2.5296,2.5174,2.517,2.5167,2.5135,2.5128,2.5122,0,0,0,0,0,2.5428,2.5391,2.5399,2.5392,2.5357,2.5325,2.532,2.5323,2.534,2.5321,2.5315,2.5327,2.5258,2.528,2.5272,2.5243,2.5176,2.5171,2.5167,2.5138,2.513,2.5122,0,0,0,0,0,0,2.5401,2.539,2.5398,2.5356,2.5341,2.5328,2.5305,2.5314,2.5293,2.5296,2.5299,2.5295,2.5252,2.5244,2.5269,2.5193,2.5219,2.5213,2.5199,2.5191,2.5185,2.5186,2.5294,0,0,0,0,0,2.539,2.5367,2.5358,2.5321,2.5314,2.5311,2.5297,2.53,2.5284,2.5278,2.5269,2.5251,2.5226,2.5209,2.5185,2.5135,2.5129,2.5111,2.5105,2.51,2.5093,2.5063,2.5053,2.5152,2.5152,2.5152,0,0,2.5368,2.5358,2.5343,2.5315,2.5305,2.5278,2.5305,2.5277,2.5256,2.5273,2.5234,2.5226,2.5207,2.5161,2.5141,2.5153,2.5065,2.5095,2.509,2.5087,2.5058,2.5048,2.504,2.5149,2.515,2.515,0,0,2.5312,2.5304,2.5271,2.5259,2.5243,2.5241,2.5233,2.5219,2.5214,2.5175,2.5187,2.5162,2.5118,2.5103,2.509,2.5026,2.5035,2.5019,2.4983,2.4953,2.4945,2.4938,2.4912,2.4903,2.5013,2.5013,2.5013,0,2.5285,2.5247,2.5253,2.5222,2.5208,2.5224,2.5189,2.5177,2.5153,2.5141,2.5157,2.51,2.5089,2.5038,2.5022,2.5012,2.5,2.5019,2.4947,2.494,2.4933,2.4908,2.4898,2.5011,2.5011,2.5011,2.5012,0,2.5213,2.5186,2.5161,2.5137,2.5121,2.5089,2.5087,2.507,2.5074,2.507,2.5028,2.5015,2.4987,2.4976,2.498,2.4924,2.4932,2.4947,2.4972,2.4921,2.4897,2.4888,2.5008,2.5009,2.5009,2.501,0,0,2.5137,2.5117,2.5108,2.5096,2.5078,2.5056,2.5023,2.4997,2.498,2.4963,2.4932,2.4895,2.4908,2.4893,2.4895,2.4869,2.4815,2.4887,2.4886,2.4871,2.4748,2.4734,2.4723,2.4822,2.482,2.4819,2.4748,0,2.5078,2.5021,2.5025,2.4971,2.4944,2.4958,2.4929,2.4913,2.4908,2.4883,2.4877,2.4848,2.487,2.486,2.4836,2.4827,2.4789,2.4832,2.479,2.4789,2.4791,2.4711,2.4697,2.463,2.4739,2.4737,2.4736,0,2.5,2.498,2.4923,2.4907,2.4896,2.487,2.4844,2.4821,2.4803,2.4801,2.4783,2.4789,2.4753,2.4782,2.473,2.4758,2.4742,2.4735,2.4732,2.4725,2.4757,2.4698,2.461,2.4598,2.4722,2.4724,2.4725,0,2.4946,2.4905,2.4865,2.4855,2.4836,2.4817,2.4807,2.4791,2.4774,2.4751,2.4739,2.4713,2.4697,2.4675,2.4673,2.4695,2.4619,2.4648,2.4613,2.4612,2.4593,2.4594,2.4497,2.4589,2.4589,2.4589,2.4589,0,2.4877,2.484,2.484,2.4815,2.4774,2.4778,2.4736,2.4729,2.4714,2.4685,2.4697,2.4669,2.467,2.4641,2.4639,2.4594,2.4588,2.4583,2.4582,2.4579,2.4579,2.4566,2.4569,2.4586,2.4587,2.4588,2.4588,0,2.4808,2.4807,2.4764,2.4749,2.4745,2.4714,2.4701,2.4675,2.4671,2.4635,2.4627,2.4619,2.4586,2.4583,2.4544,2.4543,2.4487,2.4493,2.4493,2.4492,2.4455,2.4457,2.4343,2.4327,2.4433,2.4432,2.4431,0,2.4762,2.4735,2.4717,2.4699,2.4689,2.4661,2.4643,2.4646,2.4627,2.4603,2.4579,2.4548,2.4522,2.4468,2.4457,2.4427,2.443,2.4392,2.4425,2.4422,2.4424,2.4424,2.4419,2.4384,2.4383,2.4382,2.4382,0,2.4679,2.468,2.4655,2.4629,2.4608,2.4588,2.4568,2.4553,2.4552,2.453,2.4497,2.4477,2.4437,2.4404,2.4373,2.4362,2.4369,2.4372,2.4361,2.4356,2.4356,2.4351,2.4471,2.4373,2.4374,2.4375,2.4375,2.4376,2.4618,2.4593,2.4576,2.4547,2.4533,2.4514,2.4488,2.4481,2.4454,2.4422,2.4425,2.4387,2.4367,2.4327,2.4313,2.4281,2.4294,2.4279,2.4275,2.427,2.4264,2.4364,2.4277,2.4277,2.4277,2.4277,2.4277,0,2.4532,2.4522,2.4496,2.4468,2.4444,2.4457,2.4436,2.4414,2.4381,2.4362,2.4337,2.4296,2.4264,2.4251,2.4218,2.4195,2.4198,2.4186,2.4186,2.4182,2.4258,2.4268,2.4184,2.4184,2.4184,2.4184,2.4184,2.4184,2.4485,2.4441,2.4439,2.4388,2.4378,2.4341,2.4327,2.4309,2.4294,2.4248,2.4222,2.4214,2.4196,2.4162,2.4132,2.4129,2.4114,2.41,2.4098,2.4168,2.4177,2.4186,2.4196,2.4098,2.4098,2.4024,2.4023,2.4023]}]]